Back to catalog

COSMOS 839 DEB

AliveUNKNOWN
NORAD 36300·DEBRIS·🇷🇺 Russia

Launched Jul 8, 1976 from Plesetsk Cosmodrome

Loading…

Next Passes (next 24 hours)

TLE

FreshSource: Space-Track

Epoch: Sep 14, 2026, 02:31 UTC

1 36300U 76067BZ  26257.10550708  .00000080  00000-0  48567-3 0  9997
2 36300  65.6814 144.5176 0679970   4.2855 141.9761 12.36225714771955

Track COSMOS 839 DEB in real time with AllMySat

Download on the App Store